Content
SEND FEEDBACK

Daily
Averages
Monthly
Summary
United States of America

FAIRMONT, WEST VIRGINIA


Home > North America > United States > West Virginia
Elevation: 341 meters     Latitude: 39 28N     Longitude: 080 08W

WEATHER
 
SELECT A DAY
Number of Records: 201,349;   Date Range: 1/1/95 - 9/20/14
 
SHARE

PRINT THIS DATA

[ ← Previous Day ]
WEATHER ALMANAC - 31 JANUARY, 2013
[ Next Day → ]
[ °F ]   °C
Weather ElementAverageHighLow
Temperature-1.9 °C5 °C (12:59 am)-4.4 °C (7:53 pm)
Dewpoint-5.9 °C2 °C (12:59 am)-11.7 °C (4:53 pm)
Humidity74.9 %88 % (8:53 am)51 % (3:36 pm)
Barometer1006.4 hPa1012.9 hPa (6:53 pm)993.9 hPa (12:59 am)
Wind Speed25.6 km/h37 km/h (3:47 am)
Wind Gust66.6 km/h (12:59 am)
Weather ElementAverage
Visibility7.1 km
Wind DirectionWSW (259.8 °)

Weather ElementTotal
Precipitation5.84 mm
Heating Degree Days18.1 (Base 18.3)
Averaged from 66 records on 31 January, 2013
WEATHER CONDITIONS BREAKOUT
WIND DIRECTION BREAKOUT
WEATHER BY HOUR - 31 JANUARY, 2013
[ °F ]   °C
Local TimeTemperatureDewpointHumidityBarometerVisibilityWind DirectionWind SpeedGust SpeedPrecipitationEventsConditions
12:59 AM5 °C2 °C81 %993.9 hPa8 kmWest (270°)29.6 km/h66.6 km/h0.25 mmRainLight Rain
1:53 AM3.3 °C0.6 °C83 %995.9 hPa16.1 kmWest (270°)35.2 km/h57.5 km/h1.02 mmRainLight Rain
2:53 AM2.2 °C-1.1 °C79 %997.6 hPa16.1 kmWSW (250°)25.9 km/h42.6 km/h0.76 mmOvercast
3:01 AM2 °C-1 °C81 %998.3 hPa14.5 kmWest (270°)25.9 km/h44.4 km/h0 mmOvercast
3:31 AM1 °C-1 °C87 %998.6 hPa2.9 kmWNW (290°)29.6 km/h46.3 km/h0.51 mmSnowLight Snow
3:47 AM1 °C-1 °C87 %999.3 hPa4.8 kmWest (280°)37 km/h53.8 km/h0.51 mmSnowLight Snow
3:53 AM0.6 °C-1.7 °C85 %999.3 hPa11.3 kmWNW (300°)33.3 km/h51.8 km/h0.76 mmSnowLight Snow
4:53 AM0.6 °C-4.4 °C70 %1000.7 hPa12.9 kmWest (270°)33.3 km/h51.8 km/h0.51 mmSnowLight Snow
5:02 AM0 °C-4 °C75 %1001 hPa6.4 kmWest (260°)31.5 km/h51.8 km/h0 mmSnowLight Snow
5:05 AM0 °C-4 °C75 %1001 hPa4 kmWest (260°)29.6 km/h51.8 km/h0 mmSnowLight Snow
5:09 AM0 °C-4 °C75 %1001 hPa4.8 kmWest (260°)25.9 km/h51.8 km/h0 mmSnowLight Snow
5:53 AM0 °C-4.4 °C73 %1001.7 hPa16.1 kmWest (270°)20.4 km/h40.7 km/h0.25 mmOvercast
6:08 AM-1 °C-4 °C80 %1002.4 hPa2.9 kmWSW (240°)33.3 km/h50.1 km/h0 mmSnowLight Snow
6:12 AM-1 °C-4 °C80 %1002.7 hPa1.3 kmWest (260°)33.3 km/h53.8 km/h0.25 mmSnowLight Snow
6:22 AM-1 °C-4 °C80 %1003 hPa3.2 kmWest (260°)27.8 km/h48.1 km/h0.25 mmSnowLight Snow
6:30 AM-1 °C-4 °C80 %1003 hPa12.9 kmWest (260°)29.6 km/h40.7 km/h0.25 mmSnowLight Snow
6:45 AM-1 °C-4 °C80 %1003.4 hPa4.8 kmWSW (250°)31.5 km/h48.1 km/h0.25 mmSnowLight Snow
6:53 AM-0.6 °C-5 °C72 %1003.4 hPa8 kmWest (260°)35.2 km/h46.3 km/h0.25 mmSnowLight Snow
7:53 AM-1.1 °C-5.6 °C72 %1004.4 hPa16.1 kmWest (260°)22.2 km/h46.3 km/h0 mmOvercast
8:14 AM-1 °C-5 °C75 %1004.7 hPa2.4 kmWSW (250°)22.2 km/h33.3 km/h0 mmSnowLight Snow
8:51 AM-2 °C-4 °C86 %1005.8 hPa2.4 kmWSW (250°)20.4 km/h37 km/h0 mmSnowLight Snow
8:53 AM-2.2 °C-3.9 °C88 %1005.8 hPa2.4 kmWSW (250°)22.2 km/h37 km/h0 mmSnowLight Snow
8:59 AM-2 °C-4 °C86 %1005.8 hPa0.8 kmWest (260°)20.4 km/h42.6 km/h0 mmFog-SnowSnow
9:09 AM-2 °C-4 °C86 %1005.8 hPa1.6 kmWSW (240°)20.4 km/h38.9 km/h0 mmSnowLight Snow
9:19 AM-2 °C-5 °C80 %1005.8 hPa1.6 kmWSW (250°)27.8 km/h42.6 km/h0 mmSnowLight Snow
9:43 AM-3 °C-6 °C80 %1006.4 hPa0.3 kmWSW (250°)37 km/h55.5 km/h0 mmSnowHeavy Snow
9:53 AM-2.8 °C-5 °C85 %1007.1 hPa1.3 kmWest (260°)37 km/h51.8 km/h0 mmSnowLight Snow
9:57 AM-2 °C-6 °C74 %1006.8 hPa3.2 kmWest (260°)27.8 km/h51.8 km/h0 mmSnowLight Snow
10:06 AM-2 °C-6 °C74 %1007.1 hPa6.4 kmWest (280°)25.9 km/h46.3 km/h0 mmSnowLight Snow
10:09 AM-3 °C-6 °C80 %1007.1 hPa1.9 kmWNW (290°)31.5 km/h46.3 km/h0 mmSnowLight Snow
10:17 AM-3 °C-5 °C86 %1007.5 hPa0.3 kmWNW (290°)24.1 km/h42.6 km/h0 mmFog-SnowSnow
10:38 AM-3 °C-7 °C74 %1008.1 hPa1.9 kmWest (260°)31.5 km/h57.5 km/h0 mmSnowLight Snow
10:42 AM-3 °C-7 °C74 %1008.1 hPa4.8 kmWSW (250°)24.1 km/h50.1 km/h0 mmSnowLight Snow
10:51 AM-3 °C-8 °C69 %1008.5 hPa14.5 kmWest (270°)29.6 km/h48.1 km/h0 mmOvercast
10:53 AM-2.8 °C-7.8 °C69 %1008.5 hPa16.1 kmWest (260°)31.5 km/h48.1 km/h0 mmOvercast
11:27 AM-3 °C-8 °C69 %1008.5 hPa2.9 kmWSW (250°)24.1 km/h46.3 km/h0 mmSnowLight Snow
11:36 AM-3 °C-8 °C69 %1008.5 hPa4.8 kmWSW (240°)31.5 km/h48.1 km/h0 mmSnowLight Snow
11:53 AM-2.2 °C-7.8 °C66 %1008.5 hPa16.1 kmWSW (250°)24.1 km/h42.6 km/h0 mmOvercast
12:53 PM-2.2 °C-7.8 °C66 %1008.5 hPa4 kmWSW (250°)25.9 km/h62.9 km/h0 mmSnowLight Snow
1:01 PM-2 °C-8 °C64 %1008.1 hPa9.7 kmWest (280°)27.8 km/h42.6 km/h0 mmSnowLight Snow
1:19 PM-3 °C-7 °C74 %1008.5 hPa1.9 kmWSW (250°)33.3 km/h55.5 km/h0 mmSnowLight Snow
1:27 PM-3 °C-6 °C80 %1008.5 hPa1.3 kmWest (260°)18.5 km/h55.5 km/h0 mmSnowLight Snow
1:32 PM-3 °C-6 °C80 %1008.1 hPa3.2 kmWest (270°)25.9 km/h44.4 km/h0 mmSnowLight Snow
1:49 PM-2 °C-8 °C64 %1008.5 hPa4 kmWest (260°)27.8 km/h48.1 km/h0 mmHaze
1:53 PM-2.2 °C-7.8 °C66 %1009.1 hPa4 kmWest (270°)25.9 km/h48.1 km/h0 mmSnowLight Snow
1:59 PM-3 °C-7 °C74 %1008.8 hPa1.6 kmWNW (290°)33.3 km/h59.2 km/h0 mmSnowLight Snow
2:06 PM-3 °C-6 °C80 %1009.1 hPa0.3 kmWest (270°)29.6 km/h48.1 km/h0 mmSnowHeavy Snow
2:15 PM-3 °C-7 °C74 %1009.1 hPa4.8 kmWest (270°)27.8 km/h42.6 km/h0 mmSnowLight Snow
2:32 PM-3 °C-7 °C74 %1009.5 hPa1.3 kmWest (270°)29.6 km/h42.6 km/h0 mmSnowLight Snow
2:41 PM-3 °C-7 °C74 %1009.8 hPa2.4 kmWest (280°)31.5 km/h44.4 km/h0 mmSnowLight Snow
2:45 PM-3 °C-7 °C74 %1009.8 hPa4.8 kmWest (270°)31.5 km/h44.4 km/h0 mmSnowLight Snow
2:53 PM-3.3 °C-8.3 °C69 %1010.5 hPa9.7 kmWest (260°)35.2 km/h61.2 km/h0 mmHaze
3:36 PM-2 °C-11 °C51 %1010.8 hPa16.1 kmWest (270°)22.2 km/h57.5 km/hOvercast
3:53 PM-2.8 °C-11.1 °C53 %1011.9 hPa16.1 kmWNW (290°)22.2 km/h38.9 km/hOvercast
4:53 PM-2.8 °C-11.7 °C51 %1012.2 hPa16.1 kmWest (260°)18.5 km/h31.5 km/hOvercast
5:53 PM-3.3 °C-11.7 °C53 %1012.2 hPa16.1 kmWest (260°)14.8 km/hOvercast
6:53 PM-3.9 °C-9.4 °C66 %1012.9 hPa16.1 kmSW (230°)25.9 km/h31.5 km/hMostly Cloudy
7:53 PM-4.4 °C-8.3 °C75 %1012.9 hPa16.1 kmSW (230°)9.3 km/hMostly Cloudy
8:53 PM-3.9 °C-8.3 °C72 %1012.5 hPa16.1 kmSW (220°)9.3 km/hMostly Cloudy
9:53 PM-3.3 °C-7.8 °C71 %1012.2 hPa16.1 kmSSW (210°)11.1 km/hOvercast
10:19 PM-3 °C-8 °C69 %1011.2 hPa16.1 kmWSW (240°)5.6 km/hOvercast
10:38 PM-3 °C-7 °C74 %1011.2 hPa8 kmWSW (240°)11.1 km/h0 mmSnowLight Snow
11:17 PM-4 °C-6 °C86 %1010.8 hPa3.2 kmWSW (240°)14.8 km/h31.5 km/h0 mmSnowLight Snow
11:25 PM-4 °C-6 °C86 %1010.5 hPa1.9 kmWSW (240°)14.8 km/h0 mmSnowLight Snow
11:40 PM-4 °C-7 °C80 %1010.5 hPa4.8 kmWest (260°)11.1 km/h0 mmSnowLight Snow
11:53 PM-3.9 °C-6.7 °C81 %1011.2 hPa3.2 kmWest (260°)13 km/h0 mmSnowLight Snow
Hourly data recorded from KCKB, located 0 kilometers away from Fairmont, West Virginia







STORIES FROM OUR PARTNERS